Flag for India Weather past 2 weeks in Tarn Taran Sahib, Punjab, India

Now
64 °F

Haze.


Feels Like: 64 °F
Forecast: 38 / 64 °F
Wind: 6 mph from Northwest

Location: Amritsar Airport

Current Time: Jan 29, 2015 at 2:15:59 PM

Latest Report: Jan 29, 2015 at 1:30 PM


Visibility: 2 mi

Pressure: 30.12 "Hg

Humidity: 40%

Dew point: 39 °F

Location of Tarn Taran SahibLocation

Historic Weather in Tarn Taran Sahib — Graph

°F

Tarn Taran Sahib temperature yesterday

Maximum temperature yesterday: 63 °F (at 2:00 PM)
Minimum temperature yesterday: 34 °F (at 8:00 AM)
Average temperature yesterday: 48 °F

Past Weeks' High & Low Weather Summary

 TemperatureHumidityPressure
High68 °F (Jan 17, 2:00 PM)100% (Jan 15, 2:30 AM)30.24 "Hg (Jan 15, 2:30 AM)
Low34 °F (Jan 28, 8:00 AM)39% (Jan 28, 4:00 PM)30.01 "Hg (Jan 28, 3:30 PM)
Average52 °F86%30.11 "Hg
* Reported Jan 14 11:30 AM — Jan 29 12:00 Noon, Tarn Taran Sahib, Weather by CustomWeather, © 2014

Note: Actual official high and low records may vary slightly from our data, if they occured in-between our weather recording intervals... More about our weather records

Advertising

Tarn Taran Sahib weather history for previous 24 hours

 ConditionsComfort  
Time TempWeatherWind HumidityBarometerVisibility
12:00 PM
Jan 29
61 °FScattered clouds.2 mph55%30.15 "Hg1 mi
11:30 AM59 °FScattered clouds.1 mph59%30.15 "Hg1 mi
10:00 AM50 °FFog.No wind82%30.12 "Hg1 mi
9:30 AM46 °FFog.No wind93%30.12 "Hg1 mi
9:00 AM45 °FFog.No wind93%30.09 "Hg1 mi
8:30 AM43 °FFog.No wind93%30.09 "Hg1 mi
8:00 AM41 °FFog.No wind93%30.09 "Hg1 mi
7:30 AM43 °FFog.No wind87%30.09 "Hg1 mi
7:00 AM43 °FFog.6 mph87%30.07 "Hg1 mi
6:30 AM43 °FFog.No wind93%30.07 "Hg1 mi
6:00 AM41 °FFog.No wind100%30.04 "Hg1 mi
5:30 AM41 °FFog.No wind93%30.04 "Hg1 mi
5:00 AM41 °FFog.No wind100%30.04 "Hg1 mi
4:30 AM45 °FFog.No wind87%30.04 "Hg1 mi
4:00 AM43 °FFog.No wind93%30.04 "Hg1 mi
3:30 AM43 °FFog.No wind93%30.04 "Hg1 mi
3:00 AM43 °FFog.No wind93%30.04 "Hg1 mi
2:30 AM45 °FFog.No wind87%30.04 "Hg1 mi
2:00 AM43 °FFog.No wind93%30.07 "Hg1 mi
1:30 AM43 °FFog.No wind87%30.04 "Hg1 mi
1:00 AM43 °FFog.No wind87%30.07 "Hg1 mi
12:30 AM43 °FFog.No wind93%30.07 "Hg1 mi
12:00 AM43 °FFog.No wind93%30.07 "Hg1 mi
11:30 PM
Jan 28
45 °FFog.No wind81%30.07 "Hg1 mi
11:00 PM45 °FFog.No wind81%30.07 "Hg1 mi
10:30 PM45 °FFog.No wind81%30.07 "Hg2 mi
10:00 PM45 °FFog.No wind81%30.07 "Hg2 mi
9:30 PM46 °FFog.No wind82%30.07 "Hg2 mi
9:00 PM48 °FFog.No wind71%30.04 "Hg2 mi
8:30 PM46 °FFog.No wind76%30.04 "Hg2 mi
8:00 PM48 °FFog.No wind71%30.04 "Hg2 mi
7:00 PM52 °FHaze.No wind67%30.01 "Hg2 mi
6:30 PM54 °FHaze.No wind63%30.01 "Hg2 mi
6:00 PM59 °FHaze.No wind48%30.01 "Hg2 mi
5:00 PM61 °FHaze.6 mph42%30.01 "Hg2 mi
4:30 PM63 °FHaze.7 mph39%30.01 "Hg2 mi
4:00 PM63 °FHaze.8 mph39%30.01 "Hg2 mi
3:30 PM63 °FHaze.8 mph42%30.01 "Hg3 mi
3:00 PM63 °FHaze.9 mph42%30.04 "Hg3 mi
2:30 PM63 °FHaze.10 mph45%30.04 "Hg3 mi
2:00 PM63 °FHaze.9 mph42%30.04 "Hg3 mi
Weather by CustomWeather, © 2014

See weather overviewHow to use our weather pages